Year,Month,Day,Hour,Minute,Value (Times are PST for temperature in C)
2012,08,17,00,00,18.50
2012,08,17,00,01,18.40
2012,08,17,00,02,18.40
2012,08,17,00,03,18.40
2012,08,17,00,04,18.40
2012,08,17,00,05,18.40
2012,08,17,00,06,18.40
2012,08,17,00,07,18.40
2012,08,17,00,08,18.40
2012,08,17,00,09,18.40
2012,08,17,00,10,18.40
2012,08,17,00,11,18.30
2012,08,17,00,12,18.30
2012,08,17,00,13,18.30
2012,08,17,00,14,18.30
2012,08,17,00,15,18.30
2012,08,17,00,16,18.30
2012,08,17,00,17,18.20
2012,08,17,00,18,18.20
2012,08,17,00,19,18.20
2012,08,17,00,20,18.20
2012,08,17,00,21,18.20
2012,08,17,00,22,18.20
2012,08,17,00,23,18.20
2012,08,17,00,24,18.10
2012,08,17,00,25,18.10
2012,08,17,00,26,18.10
2012,08,17,00,27,18.10
2012,08,17,00,28,18.10
2012,08,17,00,29,18.00
2012,08,17,00,30,18.00
2012,08,17,00,31,18.00
2012,08,17,00,32,18.00
2012,08,17,00,33,18.00
2012,08,17,00,34,18.00
2012,08,17,00,35,17.90
2012,08,17,00,36,17.90
2012,08,17,00,37,17.90
2012,08,17,00,38,17.90
2012,08,17,00,39,17.90
2012,08,17,00,40,17.90
2012,08,17,00,41,17.90
2012,08,17,00,42,17.90
2012,08,17,00,43,17.90
2012,08,17,00,44,17.80
2012,08,17,00,45,17.80
2012,08,17,00,46,17.80
2012,08,17,00,47,17.80
2012,08,17,00,48,17.80
2012,08,17,00,49,17.80
2012,08,17,00,50,17.80
2012,08,17,00,51,17.80
2012,08,17,00,52,17.70
2012,08,17,00,53,17.70
2012,08,17,00,54,17.70
2012,08,17,00,55,17.70
2012,08,17,00,56,17.70
2012,08,17,00,57,17.70
2012,08,17,00,58,17.70
2012,08,17,00,59,17.70
2012,08,17,01,00,17.70
2012,08,17,01,01,17.60
2012,08,17,01,02,17.60
2012,08,17,01,03,17.60
2012,08,17,01,04,17.60
2012,08,17,01,05,17.60
2012,08,17,01,06,17.60
2012,08,17,01,07,17.50
2012,08,17,01,08,17.50
2012,08,17,01,09,17.50
2012,08,17,01,10,17.40
2012,08,17,01,11,17.40
2012,08,17,01,12,17.40
2012,08,17,01,13,17.40
2012,08,17,01,14,17.50
2012,08,17,01,15,17.50
2012,08,17,01,16,17.60
2012,08,17,01,17,17.60
2012,08,17,01,18,17.60
2012,08,17,01,19,17.60
2012,08,17,01,20,17.60
2012,08,17,01,21,17.60
2012,08,17,01,22,17.60
2012,08,17,01,23,17.70
2012,08,17,01,24,17.70
2012,08,17,01,25,17.70
2012,08,17,01,26,17.70
2012,08,17,01,27,17.80
2012,08,17,01,28,17.80
2012,08,17,01,29,17.70
2012,08,17,01,30,17.70
2012,08,17,01,31,17.70
2012,08,17,01,32,17.70
2012,08,17,01,33,17.60
2012,08,17,01,34,17.60
2012,08,17,01,35,17.60
2012,08,17,01,36,17.50
2012,08,17,01,37,17.50
2012,08,17,01,38,17.40
2012,08,17,01,39,17.40
2012,08,17,01,40,17.30
2012,08,17,01,41,17.30
2012,08,17,01,42,17.30
2012,08,17,01,43,17.30
2012,08,17,01,44,17.20
2012,08,17,01,45,17.20
2012,08,17,01,46,17.20
2012,08,17,01,47,17.20
2012,08,17,01,48,17.20
2012,08,17,01,49,17.20
2012,08,17,01,50,17.20
2012,08,17,01,51,17.20
2012,08,17,01,52,17.20
2012,08,17,01,53,17.20
2012,08,17,01,54,17.20
2012,08,17,01,55,17.20
2012,08,17,01,56,17.10
2012,08,17,01,57,17.10
2012,08,17,01,58,17.10
2012,08,17,01,59,17.10
2012,08,17,02,00,17.00
2012,08,17,02,01,17.00
2012,08,17,02,02,17.00
2012,08,17,02,03,16.90
2012,08,17,02,04,16.90
2012,08,17,02,05,16.90
2012,08,17,02,06,16.90
2012,08,17,02,07,16.90
2012,08,17,02,08,16.90
2012,08,17,02,09,16.90
2012,08,17,02,10,16.90
2012,08,17,02,11,16.90
2012,08,17,02,12,16.90
2012,08,17,02,13,16.90
2012,08,17,02,14,16.90
2012,08,17,02,15,17.00
2012,08,17,02,16,17.00
2012,08,17,02,17,17.00
2012,08,17,02,18,17.00
2012,08,17,02,19,17.00
2012,08,17,02,20,17.00
2012,08,17,02,21,17.00
2012,08,17,02,22,17.00
2012,08,17,02,23,17.00
2012,08,17,02,24,17.00
2012,08,17,02,25,16.90
2012,08,17,02,26,16.90
2012,08,17,02,27,16.90
2012,08,17,02,28,16.90
2012,08,17,02,29,16.90
2012,08,17,02,30,16.90
2012,08,17,02,31,16.90
2012,08,17,02,32,16.90
2012,08,17,02,33,16.80
2012,08,17,02,34,16.80
2012,08,17,02,35,16.90
2012,08,17,02,36,16.90
2012,08,17,02,37,16.90
2012,08,17,02,38,16.90
2012,08,17,02,39,16.90
2012,08,17,02,40,16.90
2012,08,17,02,41,17.00
2012,08,17,02,42,17.10
2012,08,17,02,43,17.20
2012,08,17,02,44,17.30
2012,08,17,02,45,17.40
2012,08,17,02,46,17.60
2012,08,17,02,47,17.80
2012,08,17,02,48,17.90
2012,08,17,02,49,18.10
2012,08,17,02,50,18.30
2012,08,17,02,51,18.50
2012,08,17,02,52,18.70
2012,08,17,02,53,18.90
2012,08,17,02,54,19.00
2012,08,17,02,55,19.20
2012,08,17,02,56,19.30
2012,08,17,02,57,19.40
2012,08,17,02,58,19.40
2012,08,17,02,59,19.40
2012,08,17,03,00,19.50
2012,08,17,03,01,19.50
2012,08,17,03,02,19.40
2012,08,17,03,03,19.40
2012,08,17,03,04,19.40
2012,08,17,03,05,19.40
2012,08,17,03,06,19.40
2012,08,17,03,07,19.30
2012,08,17,03,08,19.30
2012,08,17,03,09,19.20
2012,08,17,03,10,19.20
2012,08,17,03,11,19.20
2012,08,17,03,12,19.20
2012,08,17,03,13,19.20
2012,08,17,03,14,19.20
2012,08,17,03,15,19.20
2012,08,17,03,16,19.20
2012,08,17,03,17,19.20
2012,08,17,03,18,19.20
2012,08,17,03,19,19.20
2012,08,17,03,20,19.20
2012,08,17,03,21,19.20
2012,08,17,03,22,19.10
2012,08,17,03,23,19.10
2012,08,17,03,24,19.10
2012,08,17,03,25,19.00
2012,08,17,03,26,19.00
2012,08,17,03,27,18.90
2012,08,17,03,28,18.90
2012,08,17,03,29,18.80
2012,08,17,03,30,18.80
2012,08,17,03,31,18.70
2012,08,17,03,32,18.70
2012,08,17,03,33,18.60
2012,08,17,03,34,18.50
2012,08,17,03,35,18.50
2012,08,17,03,36,18.40
2012,08,17,03,37,18.40
2012,08,17,03,38,18.30
2012,08,17,03,39,18.30
2012,08,17,03,40,18.30
2012,08,17,03,41,18.20
2012,08,17,03,42,18.20
2012,08,17,03,43,18.20
2012,08,17,03,44,18.10
2012,08,17,03,45,18.10
2012,08,17,03,46,18.00
2012,08,17,03,47,17.90
2012,08,17,03,48,17.90
2012,08,17,03,49,17.90
2012,08,17,03,50,17.80
2012,08,17,03,51,17.80
2012,08,17,03,52,17.80
2012,08,17,03,53,17.70
2012,08,17,03,54,17.70
2012,08,17,03,55,17.70
2012,08,17,03,56,17.60
2012,08,17,03,57,17.60
2012,08,17,03,58,17.60
2012,08,17,03,59,17.60
2012,08,17,04,00,17.50
2012,08,17,04,01,17.50
2012,08,17,04,02,17.40
2012,08,17,04,03,17.40
2012,08,17,04,04,17.40
2012,08,17,04,05,17.40
2012,08,17,04,06,17.30
2012,08,17,04,07,17.30
2012,08,17,04,08,17.30
2012,08,17,04,09,17.20
2012,08,17,04,10,17.20
2012,08,17,04,11,17.20
2012,08,17,04,12,17.20
2012,08,17,04,13,17.10
2012,08,17,04,14,17.10
2012,08,17,04,15,17.10
2012,08,17,04,16,17.00
2012,08,17,04,17,17.00
2012,08,17,04,18,16.90
2012,08,17,04,19,16.90
2012,08,17,04,20,16.90
2012,08,17,04,21,16.80
2012,08,17,04,22,16.80
2012,08,17,04,23,16.80
2012,08,17,04,24,16.80
2012,08,17,04,25,16.80
2012,08,17,04,26,16.70
2012,08,17,04,27,16.70
2012,08,17,04,28,16.70
2012,08,17,04,29,16.70
2012,08,17,04,30,16.70
2012,08,17,04,31,16.60
2012,08,17,04,32,16.60
2012,08,17,04,33,16.60
2012,08,17,04,34,16.60
2012,08,17,04,35,16.60
2012,08,17,04,36,16.50
2012,08,17,04,37,16.50
2012,08,17,04,38,16.40
2012,08,17,04,39,16.40
2012,08,17,04,40,16.40
2012,08,17,04,41,16.40
2012,08,17,04,42,16.40
2012,08,17,04,43,16.30
2012,08,17,04,44,16.30
2012,08,17,04,45,16.30
2012,08,17,04,46,16.30
2012,08,17,04,47,16.30
2012,08,17,04,48,16.20
2012,08,17,04,49,16.20
2012,08,17,04,50,16.20
2012,08,17,04,51,16.20
2012,08,17,04,52,16.20
2012,08,17,04,53,16.20
2012,08,17,04,54,16.10
2012,08,17,04,55,16.10
2012,08,17,04,56,16.10
2012,08,17,04,57,16.00
2012,08,17,04,58,16.00
2012,08,17,04,59,16.00
2012,08,17,05,00,15.90
2012,08,17,05,01,15.90
2012,08,17,05,02,15.90
2012,08,17,05,03,15.90
2012,08,17,05,04,15.90
2012,08,17,05,05,15.90
2012,08,17,05,06,15.90
2012,08,17,05,07,15.90
2012,08,17,05,08,15.90
2012,08,17,05,09,15.90
2012,08,17,05,10,15.80
2012,08,17,05,11,15.80
2012,08,17,05,12,15.80
2012,08,17,05,13,15.80
2012,08,17,05,14,15.80
2012,08,17,05,15,15.80
2012,08,17,05,16,15.80
2012,08,17,05,17,15.70
2012,08,17,05,18,15.70
2012,08,17,05,19,15.70
2012,08,17,05,20,15.70
2012,08,17,05,21,15.70
2012,08,17,05,22,15.70
2012,08,17,05,23,15.70
2012,08,17,05,24,15.70
2012,08,17,05,25,15.60
2012,08,17,05,26,15.60
2012,08,17,05,27,15.60
2012,08,17,05,28,15.60
2012,08,17,05,29,15.60
2012,08,17,05,30,15.50
2012,08,17,05,31,15.50
2012,08,17,05,32,15.50
2012,08,17,05,33,15.50
2012,08,17,05,34,15.40
2012,08,17,05,35,15.40
2012,08,17,05,36,15.40
2012,08,17,05,37,15.40
2012,08,17,05,38,15.40
2012,08,17,05,39,15.40
2012,08,17,05,40,15.40
2012,08,17,05,41,15.40
2012,08,17,05,42,15.30
2012,08,17,05,43,15.30
2012,08,17,05,44,15.30
2012,08,17,05,45,15.30
2012,08,17,05,46,15.30
2012,08,17,05,47,15.30
2012,08,17,05,48,15.30
2012,08,17,05,49,15.30
2012,08,17,05,50,15.30
2012,08,17,05,51,15.30
2012,08,17,05,52,15.20
2012,08,17,05,53,15.20
2012,08,17,05,54,15.20
2012,08,17,05,55,15.20
2012,08,17,05,56,15.20
2012,08,17,05,57,15.20
2012,08,17,05,58,15.20
2012,08,17,05,59,15.20
2012,08,17,06,00,15.20
2012,08,17,06,01,15.20
2012,08,17,06,02,15.10
2012,08,17,06,03,15.10
2012,08,17,06,04,15.10
2012,08,17,06,05,15.10
2012,08,17,06,06,15.10
2012,08,17,06,07,15.10
2012,08,17,06,08,15.00
2012,08,17,06,09,15.00
2012,08,17,06,10,15.10
2012,08,17,06,11,15.00
2012,08,17,06,12,15.00
2012,08,17,06,13,15.10
2012,08,17,06,14,15.10
2012,08,17,06,15,15.10
2012,08,17,06,16,15.00
2012,08,17,06,17,15.00
2012,08,17,06,18,15.00
2012,08,17,06,19,15.00
2012,08,17,06,20,15.00
2012,08,17,06,21,15.00
2012,08,17,06,22,15.00
2012,08,17,06,23,15.00
2012,08,17,06,24,15.00
2012,08,17,06,25,15.00
2012,08,17,06,26,15.00
2012,08,17,06,27,15.00
2012,08,17,06,28,15.00
2012,08,17,06,29,15.00
2012,08,17,06,30,15.00
2012,08,17,06,31,15.00
2012,08,17,06,32,15.00
2012,08,17,06,33,15.00
2012,08,17,06,34,15.00
2012,08,17,06,35,15.00
2012,08,17,06,36,15.00
2012,08,17,06,37,15.00
2012,08,17,06,38,15.00
2012,08,17,06,39,15.00
2012,08,17,06,40,15.00
2012,08,17,06,41,15.00
2012,08,17,06,42,15.00
2012,08,17,06,43,15.00
2012,08,17,06,44,15.00
2012,08,17,06,45,15.00
2012,08,17,06,46,15.00
2012,08,17,06,47,15.00
2012,08,17,06,48,15.00
2012,08,17,06,49,15.10
2012,08,17,06,50,15.20
2012,08,17,06,51,15.20
2012,08,17,06,52,15.20
2012,08,17,06,53,15.30
2012,08,17,06,54,15.30
2012,08,17,06,55,15.30
2012,08,17,06,56,15.40
2012,08,17,06,57,15.40
2012,08,17,06,58,15.50
2012,08,17,06,59,15.50
2012,08,17,07,00,15.60
2012,08,17,07,01,15.70
2012,08,17,07,02,15.70
2012,08,17,07,03,15.70
2012,08,17,07,04,15.80
2012,08,17,07,05,15.80
2012,08,17,07,06,15.90
2012,08,17,07,07,15.90
2012,08,17,07,08,16.00
2012,08,17,07,09,16.10
2012,08,17,07,10,16.10
2012,08,17,07,11,16.20
2012,08,17,07,12,16.30
2012,08,17,07,13,16.40
2012,08,17,07,14,16.50
2012,08,17,07,15,16.50
2012,08,17,07,16,16.60
2012,08,17,07,17,16.70
2012,08,17,07,18,16.70
2012,08,17,07,19,16.80
2012,08,17,07,20,16.80
2012,08,17,07,21,16.90
2012,08,17,07,22,16.90
2012,08,17,07,23,17.00
2012,08,17,07,24,17.10
2012,08,17,07,25,17.20
2012,08,17,07,26,17.30
2012,08,17,07,27,17.30
2012,08,17,07,28,17.40
2012,08,17,07,29,17.50
2012,08,17,07,30,17.50
2012,08,17,07,31,17.60
2012,08,17,07,32,17.60
2012,08,17,07,33,17.70
2012,08,17,07,34,17.80
2012,08,17,07,35,17.90
2012,08,17,07,36,17.90
2012,08,17,07,37,18.00
2012,08,17,07,38,18.10
2012,08,17,07,39,18.30
2012,08,17,07,40,18.40
2012,08,17,07,41,18.60
2012,08,17,07,42,18.70
2012,08,17,07,43,18.80
2012,08,17,07,44,18.90
2012,08,17,07,45,19.10
2012,08,17,07,46,19.20
2012,08,17,07,47,19.30
2012,08,17,07,48,19.40
2012,08,17,07,49,19.50
2012,08,17,07,50,19.60
2012,08,17,07,51,19.70
2012,08,17,07,52,19.80
2012,08,17,07,53,19.80
2012,08,17,07,54,19.90
2012,08,17,07,55,20.00
2012,08,17,07,56,20.10
2012,08,17,07,57,20.20
2012,08,17,07,58,20.30
2012,08,17,07,59,20.40
2012,08,17,08,00,20.50
2012,08,17,08,01,20.60
2012,08,17,08,02,20.70
2012,08,17,08,03,20.80
2012,08,17,08,04,20.80
2012,08,17,08,05,20.90
2012,08,17,08,06,21.00
2012,08,17,08,07,21.00
2012,08,17,08,08,21.10
2012,08,17,08,09,21.20
2012,08,17,08,10,21.30
2012,08,17,08,11,21.50
2012,08,17,08,12,21.60
2012,08,17,08,13,21.70
2012,08,17,08,14,21.80
2012,08,17,08,15,22.00
2012,08,17,08,16,22.10
2012,08,17,08,17,22.20
2012,08,17,08,18,22.30
2012,08,17,08,19,22.30
2012,08,17,08,20,22.30
2012,08,17,08,21,22.30
2012,08,17,08,22,22.30
2012,08,17,08,23,22.30
2012,08,17,08,24,22.30
2012,08,17,08,25,22.30
2012,08,17,08,26,22.30
2012,08,17,08,27,22.40
2012,08,17,08,28,22.40
2012,08,17,08,29,22.40
2012,08,17,08,30,22.40
2012,08,17,08,31,22.50
2012,08,17,08,32,22.50
2012,08,17,08,33,22.60
2012,08,17,08,34,22.60
2012,08,17,08,35,22.60
2012,08,17,08,36,22.60
2012,08,17,08,37,22.70
2012,08,17,08,38,22.70
2012,08,17,08,39,22.70
2012,08,17,08,40,22.70
2012,08,17,08,41,22.70
2012,08,17,08,42,22.60
2012,08,17,08,43,22.60
2012,08,17,08,44,22.60
2012,08,17,08,45,22.60
2012,08,17,08,46,22.60
2012,08,17,08,47,22.60
2012,08,17,08,48,22.50
2012,08,17,08,49,22.50
2012,08,17,08,50,22.50
2012,08,17,08,51,22.50
2012,08,17,08,52,22.50
2012,08,17,08,53,22.50
2012,08,17,08,54,22.50
2012,08,17,08,55,22.40
2012,08,17,08,56,22.40
2012,08,17,08,57,22.40
2012,08,17,08,58,22.40
2012,08,17,08,59,22.30
2012,08,17,09,00,22.30
2012,08,17,09,01,22.30
2012,08,17,09,02,22.20
2012,08,17,09,03,22.20
2012,08,17,09,04,22.20
2012,08,17,09,05,22.10
2012,08,17,09,06,22.10
2012,08,17,09,07,22.00
2012,08,17,09,08,21.90
2012,08,17,09,09,21.80
2012,08,17,09,10,21.80
2012,08,17,09,11,21.80
2012,08,17,09,12,21.80
2012,08,17,09,13,21.80
2012,08,17,09,14,21.80
2012,08,17,09,15,21.80
2012,08,17,09,16,21.80
2012,08,17,09,17,21.80
2012,08,17,09,18,21.80
2012,08,17,09,19,21.80
2012,08,17,09,20,21.80
2012,08,17,09,21,21.80
2012,08,17,09,22,21.80
2012,08,17,09,23,21.80
2012,08,17,09,24,21.80
2012,08,17,09,25,21.90
2012,08,17,09,26,21.90
2012,08,17,09,27,21.80
2012,08,17,09,28,21.80
2012,08,17,09,29,21.80
2012,08,17,09,30,21.80
2012,08,17,09,31,21.70
2012,08,17,09,32,21.70
2012,08,17,09,33,21.70
2012,08,17,09,34,21.70
2012,08,17,09,35,21.60
2012,08,17,09,36,21.50
2012,08,17,09,37,21.50
2012,08,17,09,38,21.40
2012,08,17,09,39,21.40
2012,08,17,09,40,21.30
2012,08,17,09,41,21.30
2012,08,17,09,42,21.40
2012,08,17,09,43,21.40
2012,08,17,09,44,21.50
2012,08,17,09,45,21.50
2012,08,17,09,46,21.60
2012,08,17,09,47,21.60
2012,08,17,09,48,21.60
2012,08,17,09,49,21.60
2012,08,17,09,50,21.60
2012,08,17,09,51,21.60
2012,08,17,09,52,21.60
2012,08,17,09,53,21.60
2012,08,17,09,54,21.60
2012,08,17,09,55,21.60
2012,08,17,09,56,21.60
2012,08,17,09,57,21.60
2012,08,17,09,58,21.60
2012,08,17,09,59,21.50
2012,08,17,10,00,21.50
2012,08,17,10,01,21.50
2012,08,17,10,02,21.50
2012,08,17,10,03,21.50
2012,08,17,10,04,21.60
2012,08,17,10,05,21.60
2012,08,17,10,06,21.70
2012,08,17,10,07,21.80
2012,08,17,10,08,21.80
2012,08,17,10,09,21.80
2012,08,17,10,10,21.90
2012,08,17,10,11,21.90
2012,08,17,10,12,21.90
2012,08,17,10,13,21.90
2012,08,17,10,14,21.90
2012,08,17,10,15,22.00
2012,08,17,10,16,22.10
2012,08,17,10,17,22.10
2012,08,17,10,18,22.10
2012,08,17,10,19,22.20
2012,08,17,10,20,22.20
2012,08,17,10,21,22.30
2012,08,17,10,22,22.30
2012,08,17,10,23,22.30
2012,08,17,10,24,22.30
2012,08,17,10,25,22.30
2012,08,17,10,26,22.30
2012,08,17,10,27,22.30
2012,08,17,10,28,22.30
2012,08,17,10,29,22.30
2012,08,17,10,30,22.30
2012,08,17,10,31,22.20
2012,08,17,10,32,22.20
2012,08,17,10,33,22.20
2012,08,17,10,34,22.20
2012,08,17,10,35,22.20
2012,08,17,10,36,22.20
2012,08,17,10,37,22.20
2012,08,17,10,38,22.20
2012,08,17,10,39,22.20
2012,08,17,10,40,22.20
2012,08,17,10,41,22.20
2012,08,17,10,42,22.20
2012,08,17,10,43,22.10
2012,08,17,10,44,22.10
2012,08,17,10,45,22.00
2012,08,17,10,46,22.00
2012,08,17,10,47,22.00
2012,08,17,10,48,22.00
2012,08,17,10,49,22.00
2012,08,17,10,50,22.00
2012,08,17,10,51,22.10
2012,08,17,10,52,22.10
2012,08,17,10,53,22.10
2012,08,17,10,54,22.10
2012,08,17,10,55,22.10
2012,08,17,10,56,22.10
2012,08,17,10,57,22.10
2012,08,17,10,58,22.10
2012,08,17,10,59,22.10
2012,08,17,11,00,22.00
2012,08,17,11,01,22.00
2012,08,17,11,02,22.00
2012,08,17,11,03,22.00
2012,08,17,11,04,22.00
2012,08,17,11,05,22.00
2012,08,17,11,06,22.00
2012,08,17,11,07,22.10
2012,08,17,11,08,22.10
2012,08,17,11,09,22.20
2012,08,17,11,10,22.30
2012,08,17,11,11,22.30
2012,08,17,11,12,22.40
2012,08,17,11,13,22.40
2012,08,17,11,14,22.40
2012,08,17,11,15,22.50
2012,08,17,11,16,22.60
2012,08,17,11,17,22.70
2012,08,17,11,18,22.80
2012,08,17,11,19,22.80
2012,08,17,11,20,22.90
2012,08,17,11,21,22.90
2012,08,17,11,22,23.00
2012,08,17,11,23,23.00
2012,08,17,11,24,23.00
2012,08,17,11,25,23.00
2012,08,17,11,26,23.00
2012,08,17,11,27,23.00
2012,08,17,11,28,22.90
2012,08,17,11,29,22.90
2012,08,17,11,30,22.90
2012,08,17,11,31,22.80
2012,08,17,11,32,22.80
2012,08,17,11,33,22.80
2012,08,17,11,34,22.80
2012,08,17,11,35,22.70
2012,08,17,11,36,22.70
2012,08,17,11,37,22.70
2012,08,17,11,38,22.70
2012,08,17,11,39,22.70
2012,08,17,11,40,22.70
2012,08,17,11,41,22.80
2012,08,17,11,42,22.90
2012,08,17,11,43,23.00
2012,08,17,11,44,23.10
2012,08,17,11,45,23.10
2012,08,17,11,46,23.20
2012,08,17,11,47,23.20
2012,08,17,11,48,23.30
2012,08,17,11,49,23.30
2012,08,17,11,50,23.30
2012,08,17,11,51,23.40
2012,08,17,11,52,23.30
2012,08,17,11,53,23.40
2012,08,17,11,54,23.40
2012,08,17,11,55,23.40
2012,08,17,11,56,23.40
2012,08,17,11,57,23.40
2012,08,17,11,58,23.40
2012,08,17,11,59,23.40
2012,08,17,12,00,23.40
2012,08,17,12,01,23.40
2012,08,17,12,02,23.30
2012,08,17,12,03,23.30
2012,08,17,12,04,23.30
2012,08,17,12,05,23.20
2012,08,17,12,06,23.20
2012,08,17,12,07,23.30
2012,08,17,12,08,23.30
2012,08,17,12,09,23.40
2012,08,17,12,10,23.50
2012,08,17,12,11,23.60
2012,08,17,12,12,23.70
2012,08,17,12,13,23.80
2012,08,17,12,14,23.90
2012,08,17,12,15,23.90
2012,08,17,12,16,24.00
2012,08,17,12,17,24.00
2012,08,17,12,18,23.90
2012,08,17,12,19,23.90
2012,08,17,12,20,23.80
2012,08,17,12,21,23.80
2012,08,17,12,22,23.70
2012,08,17,12,23,23.70
2012,08,17,12,24,23.70
2012,08,17,12,25,23.80
2012,08,17,12,26,23.80
2012,08,17,12,27,23.80
2012,08,17,12,28,23.80
2012,08,17,12,29,23.80
2012,08,17,12,30,23.80
2012,08,17,12,31,23.90
2012,08,17,12,32,23.90
2012,08,17,12,33,23.90
2012,08,17,12,34,23.90
2012,08,17,12,35,23.90
2012,08,17,12,36,23.90
2012,08,17,12,37,23.90
2012,08,17,12,38,23.90
2012,08,17,12,39,23.90
2012,08,17,12,40,23.90
2012,08,17,12,41,23.90
2012,08,17,12,42,23.90
2012,08,17,12,43,23.90
2012,08,17,12,44,23.90
2012,08,17,12,45,23.90
2012,08,17,12,46,23.90
2012,08,17,12,47,23.80
2012,08,17,12,48,23.80
2012,08,17,12,49,23.80
2012,08,17,12,50,23.80
2012,08,17,12,51,23.70
2012,08,17,12,52,23.70
2012,08,17,12,53,23.80
2012,08,17,12,54,23.80
2012,08,17,12,55,23.80
2012,08,17,12,56,23.80
2012,08,17,12,57,23.80
2012,08,17,12,58,23.80
2012,08,17,12,59,23.80
2012,08,17,13,00,23.80
2012,08,17,13,01,23.80
2012,08,17,13,02,23.70
2012,08,17,13,03,23.70
2012,08,17,13,04,23.70
2012,08,17,13,05,23.70
2012,08,17,13,06,23.70
2012,08,17,13,07,23.80
2012,08,17,13,08,23.80
2012,08,17,13,09,23.90
2012,08,17,13,10,24.00
2012,08,17,13,11,24.10
2012,08,17,13,12,24.20
2012,08,17,13,13,24.30
2012,08,17,13,14,24.30
2012,08,17,13,15,24.40
2012,08,17,13,16,24.50
2012,08,17,13,17,24.60
2012,08,17,13,18,24.60
2012,08,17,13,19,24.70
2012,08,17,13,20,24.70
2012,08,17,13,21,24.80
2012,08,17,13,22,24.80
2012,08,17,13,23,24.80
2012,08,17,13,24,24.80
2012,08,17,13,25,24.90
2012,08,17,13,26,24.90
2012,08,17,13,27,24.90
2012,08,17,13,28,24.90
2012,08,17,13,29,25.00
2012,08,17,13,30,25.00
2012,08,17,13,31,25.10
2012,08,17,13,32,25.10
2012,08,17,13,33,25.10
2012,08,17,13,34,25.10
2012,08,17,13,35,25.10
2012,08,17,13,36,25.10
2012,08,17,13,37,25.10
2012,08,17,13,38,25.10
2012,08,17,13,39,25.20
2012,08,17,13,40,25.20
2012,08,17,13,41,25.30
2012,08,17,13,42,25.40
2012,08,17,13,43,25.40
2012,08,17,13,44,25.40
2012,08,17,13,45,25.40
2012,08,17,13,46,25.30
2012,08,17,13,47,25.30
2012,08,17,13,48,25.30
2012,08,17,13,49,25.30
2012,08,17,13,50,25.30
2012,08,17,13,51,25.30
2012,08,17,13,52,25.30
2012,08,17,13,53,25.40
2012,08,17,13,54,25.40
2012,08,17,13,55,25.50
2012,08,17,13,56,25.60
2012,08,17,13,57,25.60
2012,08,17,13,58,25.70
2012,08,17,13,59,25.70
2012,08,17,14,00,25.80
2012,08,17,14,01,25.70
2012,08,17,14,02,25.70
2012,08,17,14,03,25.70
2012,08,17,14,04,25.60
2012,08,17,14,05,25.60
2012,08,17,14,06,25.60
2012,08,17,14,07,25.60
2012,08,17,14,08,25.70
2012,08,17,14,09,25.70
2012,08,17,14,10,25.80
2012,08,17,14,11,25.90
2012,08,17,14,12,25.90
2012,08,17,14,13,26.00
2012,08,17,14,14,26.10
2012,08,17,14,15,26.20
2012,08,17,14,16,26.30
2012,08,17,14,17,26.40
2012,08,17,14,18,26.40
2012,08,17,14,19,26.40
2012,08,17,14,20,26.50
2012,08,17,14,21,26.50
2012,08,17,14,22,26.60
2012,08,17,14,23,26.60
2012,08,17,14,24,26.70
2012,08,17,14,25,26.70
2012,08,17,14,26,26.80
2012,08,17,14,27,26.80
2012,08,17,14,28,26.90
2012,08,17,14,29,26.90
2012,08,17,14,30,26.80
2012,08,17,14,31,26.80
2012,08,17,14,32,26.80
2012,08,17,14,33,26.70
2012,08,17,14,34,26.70
2012,08,17,14,35,26.70
2012,08,17,14,36,26.80
2012,08,17,14,37,26.80
2012,08,17,14,38,26.80
2012,08,17,14,39,26.80
2012,08,17,14,40,26.80
2012,08,17,14,41,26.80
2012,08,17,14,42,26.80
2012,08,17,14,43,26.80
2012,08,17,14,44,26.80
2012,08,17,14,45,26.80
2012,08,17,14,46,26.80
2012,08,17,14,47,26.80
2012,08,17,14,48,26.80
2012,08,17,14,49,26.80
2012,08,17,14,50,26.80
2012,08,17,14,51,26.80
2012,08,17,14,52,26.90
2012,08,17,14,53,26.90
2012,08,17,14,54,26.80
2012,08,17,14,55,26.80
2012,08,17,14,56,26.80
2012,08,17,14,57,26.80
2012,08,17,14,58,26.80
2012,08,17,14,59,26.80
2012,08,17,15,00,26.80
2012,08,17,15,01,26.80
2012,08,17,15,02,26.80
2012,08,17,15,03,26.80
2012,08,17,15,04,26.90
2012,08,17,15,05,26.90
2012,08,17,15,06,27.00
2012,08,17,15,07,27.10
2012,08,17,15,08,27.20
2012,08,17,15,09,27.20
2012,08,17,15,10,27.20
2012,08,17,15,11,27.30
2012,08,17,15,12,27.30
2012,08,17,15,13,27.30
2012,08,17,15,14,27.40
2012,08,17,15,15,27.50
2012,08,17,15,16,27.50
2012,08,17,15,17,27.60
2012,08,17,15,18,27.60
2012,08,17,15,19,27.60
2012,08,17,15,20,27.60
2012,08,17,15,21,27.60
2012,08,17,15,22,27.50
2012,08,17,15,23,27.40
2012,08,17,15,24,27.40
2012,08,17,15,25,27.30
2012,08,17,15,26,27.30
2012,08,17,15,27,27.30
2012,08,17,15,28,27.40
2012,08,17,15,29,27.40
2012,08,17,15,30,27.40
2012,08,17,15,31,27.50
2012,08,17,15,32,27.40
2012,08,17,15,33,27.40
2012,08,17,15,34,27.30
2012,08,17,15,35,27.30
2012,08,17,15,36,27.20
2012,08,17,15,37,27.10
2012,08,17,15,38,27.00
2012,08,17,15,39,26.90
2012,08,17,15,40,26.90
2012,08,17,15,41,26.80
2012,08,17,15,42,26.80
2012,08,17,15,43,26.80
2012,08,17,15,44,26.80
2012,08,17,15,45,26.90
2012,08,17,15,46,27.00
2012,08,17,15,47,27.10
2012,08,17,15,48,27.10
2012,08,17,15,49,27.20
2012,08,17,15,50,27.30
2012,08,17,15,51,27.40
2012,08,17,15,52,27.50
2012,08,17,15,53,27.60
2012,08,17,15,54,27.70
2012,08,17,15,55,27.80
2012,08,17,15,56,27.90
2012,08,17,15,57,27.90
2012,08,17,15,58,27.90
2012,08,17,15,59,28.00
2012,08,17,16,00,28.00
2012,08,17,16,01,28.00
2012,08,17,16,02,28.00
2012,08,17,16,03,28.00
2012,08,17,16,04,28.00
2012,08,17,16,05,28.10
2012,08,17,16,06,28.10
2012,08,17,16,07,28.10
2012,08,17,16,08,28.10
2012,08,17,16,09,28.20
2012,08,17,16,10,28.20
2012,08,17,16,11,28.30
2012,08,17,16,12,28.30
2012,08,17,16,13,28.40
2012,08,17,16,14,28.40
2012,08,17,16,15,28.40
2012,08,17,16,16,28.50
2012,08,17,16,17,28.60
2012,08,17,16,18,28.60
2012,08,17,16,19,28.60
2012,08,17,16,20,28.60
2012,08,17,16,21,28.60
2012,08,17,16,22,28.60
2012,08,17,16,23,28.60
2012,08,17,16,24,28.60
2012,08,17,16,25,28.60
2012,08,17,16,26,28.60
2012,08,17,16,27,28.50
2012,08,17,16,28,28.40
2012,08,17,16,29,28.40
2012,08,17,16,30,28.30
2012,08,17,16,31,28.30
2012,08,17,16,32,28.20
2012,08,17,16,33,28.10
2012,08,17,16,34,28.00
2012,08,17,16,35,28.00
2012,08,17,16,36,27.90
2012,08,17,16,37,27.90
2012,08,17,16,38,27.80
2012,08,17,16,39,27.80
2012,08,17,16,40,27.80
2012,08,17,16,41,27.70
2012,08,17,16,42,27.70
2012,08,17,16,43,27.60
2012,08,17,16,44,27.60
2012,08,17,16,45,27.60
2012,08,17,16,46,27.50
2012,08,17,16,47,27.40
2012,08,17,16,48,27.40
2012,08,17,16,49,27.40
2012,08,17,16,50,27.40
2012,08,17,16,51,27.50
2012,08,17,16,52,27.60
2012,08,17,16,53,27.70
2012,08,17,16,54,27.70
2012,08,17,16,55,27.80
2012,08,17,16,56,27.90
2012,08,17,16,57,28.00
2012,08,17,16,58,28.10
2012,08,17,16,59,28.20
2012,08,17,17,00,28.30
2012,08,17,17,01,28.40
2012,08,17,17,02,28.60
2012,08,17,17,03,28.70
2012,08,17,17,04,28.80
2012,08,17,17,05,28.90
2012,08,17,17,06,29.10
2012,08,17,17,07,29.20
2012,08,17,17,08,29.20
2012,08,17,17,09,29.30
2012,08,17,17,10,29.40
2012,08,17,17,11,29.40
2012,08,17,17,12,29.50
2012,08,17,17,13,29.60
2012,08,17,17,14,29.60
2012,08,17,17,15,29.60
2012,08,17,17,16,29.70
2012,08,17,17,17,29.80
2012,08,17,17,18,29.80
2012,08,17,17,19,29.80